Wind_Speed
11 14 18 19 20 25 26 28 33 35 32 33 32 40 48 42 44 42 42 40 42 47 39 39 42 37 39 42 42 46 52 51 49 42 39 42 43 40 42 42 43 43 36 35
14 17 15 18 20 24 25 29 36 34 30 29 34 42 42 36 44 40 43 44 39 37 38 39 40 35 42 40 45 52 58 60 57 47 45 49 45 44 43 40 37 36 35 33
14 17 20 20 23 25 28 30 31 31 28 28 35 39 42 41 36 37 41 36 41 38 42 34 35 44 44 48 47 50 56 61 60 54 51 51 42 40 38 40 32 30 34 32
18 19 19 21 24 21 26 23 27 29 30 27 25 25 39 39 42 39 41 41 37 38 38 45 43 41 44 49 52 55 57 56 56 55 53 52 40 38 36 32 33 29 29 25
16 17 18 22 24 22 29 27 29 30 32 33 34 29 38 35 42 41 39 37 38 37 38 40 46 49 52 53 54 55 55 58 56 55 54 44 43 36 33 30 29 30 26 21
21 15 21 16 24 23 26 28 31 31 33 26 38 37 39 39 39 39 36 36 34 36 35 41 39 39 43 40 41 44 46 48 46 41 39 40 39 29 29 25 27 27 23 22
19 18 19 17 19 14 17 22 16 22 20 18 36 37 36 41 36 37 38 34 33 26 31 31 31 34 38 44 44 39 38 36 33 33 37 37 30 26 30 27 26 24 23 23
21 21 17 9 22 29 22 22 12 13 15 18 27 25 29 27 24 36 33 33 31 27 26 37 33 29 32 27 30 27 31 32 28 30 34 33 30 26 32 26 24 25 24 22
21 26 22 23 23 20 22 23 27 24 32 28 32 34 29 26 33 29 38 33 26 30 21 23 28 28 27 25 26 30 31 30 26 24 25 27 27 30 28 28 26 26 23 20
20 30 25 29 25 25 29 22 23 16 6 16 21 24 26 18 21 29 33 30 25 23 26 26 25 25 25 25 28 29 31 26 24 22 23 25 26 27 28 28 25 23 20 18
21 24 30 21 23 25 23 26 20 11 8 6 12 18 11 17 22 18 21 29 21 17 13 17 22 24 22 28 25 33 28 25 19 19 23 25 25 27 27 23 24 20 17 16
18 20 25 26 27 25 14 20 10 17 13 19 23 35 23 18 33 19 16 16 14 10 9 20 26 34 33 28 29 24 27 22 18 20 25 24 25 23 24 24 19 17 15 15
16 11 23 21 18 13 14 21 22 20 23 20 16 19 21 34 28 20 9 13 14 13 6 16 14 22 23 24 23 24 25 23 22 21 21 21 20 21 22 20 17 16 16 19
23 22 21 22 26 26 23 30 24 23 24 30 25 26 26 32 37 10 2 4 8 5 12 16 8 21 20 21 21 23 24 24 23 24 24 24 23 21 19 17 16 17 18 17
13 22 20 23 25 26 28 28 28 30 30 34 30 28 23 25 26 34 14 18 14 5 8 11 12 22 29 28 28 26 26 23 21 23 24 23 20 18 16 15 16 17 16 16
13 20 20 30 24 24 27 25 28 32 29 31 30 28 21 20 23 18 20 20 12 9 5 12 9 18 29 28 26 28 26 25 28 24 21 19 16 15 16 16 15 16 15 14
32 26 20 34 22 19 21 17 22 22 23 19 18 22 22 15 17 15 16 13 11 10 7 10 10 21 30 29 28 27 28 27 23 18 17 15 15 16 15 14 15 14 13 13
22 12 10 17 16 11 13 13 21 24 23 17 17 19 19 18 16 16 15 15 15 11 11 12 14 25 36 30 29 27 25 23 19 17 13 14 15 13 14 14 14 13 11 10
22 14 9 6 10 19 21 23 23 28 35 21 21 19 21 20 19 19 7 14 17 12 17 17 13 23 28 32 25 26 20 20 15 12 10 12 11 12 15 13 12 10 13 12
10 15 12 15 6 4 5 11 14 23 35 24 16 15 11 12 14 9 6 6 10 18 24 16 15 32 35 31 28 22 22 17 13 12 17 13 11 8 13 11 11 14 14 13
14 12 17 19 10 10 3 32 32 5 16 23 21 18 18 16 19 19 13 11 3 22 27 21 21 34 37 33 27 21 22 18 21 18 15 13 9 8 10 13 13 16 15 13
11 8 8 7 6 6 26 33 22 28 24 28 28 26 25 25 23 17 14 16 11 19 22 23 33 41 38 32 25 25 23 23 20 15 14 11 10 9 11 13 15 14 13 10
10 17 19 10 16 27 26 31 31 26 27 26 21 18 23 25 26 25 22 22 14 21 18 25 33 40 34 30 26 26 25 21 15 14 11 10 10 9 9 11 12 13 12 11
22 18 23 21 23 27 38 27 21 22 25 27 19 17 18 18 17 27 28 25 18 19 24 29 30 36 35 27 27 27 23 16 17 19 16 12 13 10 8 7 8 11 10 10
19 21 19 25 24 31 25 28 36 30 26 18 12 13 16 12 12 21 23 24 16 25 29 30 34 32 27 30 27 22 15 15 19 19 13 13 12 10 9 6 6 8 9 9
16 19 22 26 30 32 35 45 35 21 17 11 12 12 13 12 12 16 25 13 15 26 36 34 28 29 25 29 28 19 12 11 16 13 13 11 8 6 4 5 4 5 9 12
Wind_Direction
293 276 267 271 264 266 276 276 272 269 272 280 271 263 257 256 254 251 245 246 245 238 238 238 243 249 252 250 247 253 246 245 258 265 276 288 292 295 291 281 274 267 270 278
297 274 279 280 276 271 272 274 273 277 278 279 274 268 259 258 251 252 251 251 248 241 240 237 228 231 234 242 248 254 251 248 257 270 278 283 288 293 289 283 279 269 269 273
290 287 290 286 279 277 272 272 275 279 282 271 270 272 265 257 258 250 246 247 253 249 234 237 235 239 239 243 249 251 251 255 261 268 276 279 282 286 279 279 282 271 266 272
291 295 290 284 277 277 276 274 274 278 276 271 268 275 265 261 257 253 251 243 250 241 241 243 242 242 247 248 253 255 255 256 259 264 269 277 280 279 274 267 269 269 273 264
300 302 295 282 288 289 289 287 284 277 275 275 267 260 268 261 261 257 253 255 242 246 243 245 241 242 244 245 248 253 258 262 264 264 267 275 273 268 262 259 261 264 265 254
291 294 293 283 283 293 287 285 279 281 272 264 265 261 265 265 264 261 256 251 250 246 245 239 247 250 250 253 254 257 262 261 261 260 262 262 254 256 255 248 252 261 252 256
303 304 309 307 303 291 286 289 287 259 255 262 262 258 260 266 265 260 255 254 249 247 242 236 247 247 247 245 246 246 252 255 257 254 252 248 242 246 245 246 253 258 252 258
315 306 306 315 303 296 281 283 271 282 261 274 284 281 273 267 264 256 251 249 243 249 243 240 235 238 250 247 246 249 252 244 247 250 245 234 232 237 238 247 259 250 250 257
300 293 290 295 298 291 292 288 280 251 259 264 273 281 270 281 265 246 243 242 232 230 240 236 231 233 230 227 232 244 249 243 237 247 239 228 225 229 234 250 257 244 248 257
298 299 293 295 291 288 266 281 292 278 303 279 261 266 272 293 320 248 247 253 237 231 224 234 231 234 228 222 234 239 243 245 238 240 226 216 221 225 238 248 242 241 250 262
306 296 297 295 284 280 289 269 263 281 232 261 276 273 24 312 307 283 242 231 233 211 233 238 224 219 213 211 222 224 235 226 228 230 217 212 215 224 235 231 234 243 254 260
301 292 292 291 281 287 295 275 275 281 293 285 285 279 324 313 310 298 286 222 206 205 251 263 242 227 211 207 214 222 213 217 219 219 204 206 215 225 226 227 235 245 251 251
307 285 304 299 293 309 305 319 299 298 283 271 269 290 305 308 306 313 235 163 238 172 326 268 254 197 208 210 208 204 206 212 215 204 196 203 216 223 220 223 230 236 247 256
294 281 268 276 286 293 285 292 287 281 281 282 277 302 303 323 322 312 58 64 270 128 343 299 225 174 166 172 189 180 183 201 201 190 200 210 213 212 217 222 227 245 246 246
269 276 285 283 284 280 279 276 278 258 262 266 286 291 299 305 318 318 328 343 324 327 4 315 193 172 172 180 187 184 185 182 188 190 198 200 201 208 213 228 238 239 237 236
286 284 295 285 288 282 276 273 271 272 272 273 276 283 294 293 290 305 305 300 291 296 310 326 218 178 178 187 182 174 174 166 178 195 186 188 196 212 228 229 232 228 230 229
289 290 290 280 292 293 288 284 285 302 299 306 296 301 304 315 305 287 304 304 291 281 274 312 285 187 176 171 164 163 167 195 185 180 178 193 216 223 225 222 219 219 219 213
255 297 306 289 295 270 284 300 303 307 294 303 310 306 306 293 294 283 289 289 275 283 271 257 270 198 174 162 161 167 193 182 174 175 195 214 219 218 208 210 211 212 208 188
221 271 322 280 288 281 286 280 300 311 287 317 294 296 281 288 299 276 286 292 264 261 254 245 236 193 169 161 168 187 189 167 169 184 196 211 204 197 206 206 208 190 178 183
269 293 296 296 277 280 315 282 310 309 288 282 287 279 282 288 266 246 223 229 273 252 257 240 232 177 180 175 172 194 165 160 157 169 182 202 200 200 209 199 186 175 181 185
290 288 269 283 264 270 283 335 323 285 289 287 290 277 275 243 236 252 209 198 258 241 245 217 195 174 175 168 177 180 154 147 174 199 215 183 191 216 200 187 174 172 183 191
301 290 273 294 285 299 322 316 324 311 299 307 283 274 259 258 244 238 214 212 257 255 245 196 176 171 169 168 180 161 149 179 196 203 212 178 197 220 184 170 167 175 182 193
302 312 282 281 273 300 310 313 312 305 306 310 289 268 252 241 235 219 200 220 240 258 227 192 177 160 160 171 172 152 173 191 197 178 176 194 195 163 141 158 166 174 184 195
304 299 289 287 309 304 313 321 315 309 305 304 276 266 252 242 235 217 209 218 231 228 193 156 152 158 158 172 154 162 185 185 187 168 189 195 160 164 155 153 171 185 192 188
302 297 301 306 309 318 311 322 322 299 298 285 267 248 212 218 209 220 203 212 207 197 183 150 158 161 173 156 154 176 175 189 181 174 175 159 155 141 133 150 172 183 191 191
308 335 328 326 316 323 318 317 312 299 290 272 249 226 185 190 188 185 195 202 209 198 153 151 156 166 172 155 154 169 161 197 171 165 160 154 119 116 146 185 186 191 193 196
Height
3070 3070 3067 3067 3066 3063 3062 3059 3056 3055 3059 3059 3059 3055 3052 3058 3060 3061 3066 3069 3071 3074 3079 3084 3089 3090 3091 3090 3090 3092 3097 3101 3104 3105 3104 3104 3104 3105 3104 3103 3105 3104 3105 3104
3067 3064 3064 3063 3061 3060 3060 3057 3052 3052 3053 3055 3050 3043 3041 3048 3051 3054 3055 3057 3061 3065 3070 3074 3077 3082 3082 3078 3079 3083 3088 3092 3095 3096 3098 3098 3097 3097 3096 3095 3096 3096 3097 3098
3063 3062 3060 3059 3058 3057 3056 3054 3051 3050 3051 3050 3044 3039 3035 3037 3040 3043 3044 3049 3052 3055 3059 3064 3068 3070 3071 3071 3071 3074 3078 3083 3086 3088 3088 3089 3090 3091 3089 3086 3088 3090 3091 3093
3060 3059 3057 3056 3054 3055 3050 3051 3047 3045 3044 3040 3043 3030 3031 3031 3031 3035 3035 3037 3043 3046 3051 3054 3057 3061 3062 3063 3063 3063 3066 3071 3076 3079 3079 3079 3081 3083 3082 3082 3081 3085 3086 3086
3058 3055 3053 3051 3050 3047 3042 3043 3041 3039 3036 3035 3033 3031 3018 3027 3020 3027 3030 3033 3034 3038 3042 3046 3047 3050 3051 3054 3054 3056 3058 3059 3063 3067 3069 3070 3071 3074 3074 3075 3077 3079 3081 3082
3052 3052 3050 3047 3044 3044 3042 3040 3037 3033 3031 3023 3022 3025 3015 3017 3018 3019 3022 3026 3027 3030 3032 3035 3038 3040 3041 3044 3045 3046 3046 3048 3051 3055 3057 3061 3062 3066 3066 3069 3071 3074 3076 3077
3049 3047 3045 3042 3042 3040 3039 3036 3032 3024 3019 3009 3014 3014 3009 3009 3012 3013 3014 3017 3019 3022 3025 3027 3030 3031 3033 3034 3036 3037 3037 3038 3042 3044 3046 3053 3055 3058 3060 3062 3066 3069 3070 3071
3045 3043 3043 3042 3040 3037 3035 3034 3033 3021 3011 3005 3003 3000 2999 2999 3000 3004 3005 3009 3012 3013 3016 3019 3020 3023 3024 3025 3027 3028 3029 3031 3033 3036 3039 3044 3048 3052 3053 3058 3062 3063 3065 3067
3044 3039 3040 3038 3036 3034 3028 3026 3022 3018 3016 3006 3002 2997 2997 2998 2996 2998 2996 3000 3003 3005 3008 3010 3012 3015 3016 3019 3021 3021 3022 3024 3027 3029 3031 3036 3042 3045 3050 3053 3057 3058 3060 3062
3042 3034 3037 3032 3031 3026 3024 3022 3017 3013 3008 3004 2997 2993 2992 2993 2990 2992 2994 2996 2999 3000 3001 3001 3003 3005 3008 3011 3014 3014 3015 3017 3020 3023 3026 3031 3037 3042 3045 3048 3051 3054 3056 3058
3039 3035 3029 3029 3024 3020 3018 3013 3011 3011 3011 3003 2995 2988 2995 2990 2989 2984 2984 2994 2994 2991 2995 2998 2998 2998 3000 3004 3007 3007 3010 3012 3015 3018 3022 3027 3034 3038 3041 3043 3045 3050 3052 3054
3037 3031 3026 3022 3017 3015 3012 3009 3009 3006 3002 2998 2996 2979 2988 2987 2984 2980 2978 2977 2990 2986 2990 2989 2989 2989 2992 2996 2997 3001 3004 3009 3012 3015 3019 3025 3030 3035 3037 3039 3043 3045 3048 3050
3030 3028 3023 3016 3012 3011 3010 3004 3002 3001 2998 2992 2998 2987 2989 2986 2986 2981 2979 2973 2982 2981 2982 2981 2977 2978 2985 2989 2993 2996 3001 3004 3008 3013 3018 3023 3028 3032 3035 3038 3041 3043 3044 3045
3028 3023 3023 3018 3015 3013 3009 3004 3001 2999 2996 2984 2986 2987 2987 2984 2984 2982 2977 2975 2979 2978 2978 2975 2972 2975 2981 2987 2990 2994 2998 3001 3006 3011 3016 3021 3025 3029 3032 3036 3038 3040 3041 3042
3022 3016 3016 3012 3009 3006 3002 2998 2992 2989 2987 2983 2982 2982 2983 2979 2981 2981 2978 2973 2974 2975 2976 2974 2972 2975 2978 2981 2987 2992 2997 3001 3005 3008 3014 3019 3023 3027 3030 3032 3034 3036 3037 3037
3019 3012 3011 3003 3004 3000 2994 2990 2984 2978 2980 2979 2975 2975 2978 2977 2973 2980 2977 2977 2978 2974 2974 2975 2973 2976 2978 2982 2986 2990 2996 3000 3004 3007 3013 3018 3021 3024 3027 3029 3031 3032 3034 3036
3014 3011 3008 2996 2998 2994 2989 2984 2979 2975 2975 2974 2973 2973 2974 2976 2974 2974 2971 2973 2973 2973 2974 2975 2972 2975 2974 2981 2986 2991 2994 2999 3003 3008 3012 3016 3020 3022 3024 3026 3027 3030 3031 3033
3009 3008 3005 2997 2994 2990 2984 2981 2976 2972 2971 2974 2972 2969 2967 2968 2971 2972 2972 2971 2972 2972 2973 2971 2971 2969 2970 2981 2986 2990 2995 2999 3004 3008 3012 3014 3016 3019 3021 3023 3025 3027 3029 3032
3004 3004 3002 2998 2993 2986 2980 2978 2974 2966 2959 2965 2960 2963 2964 2965 2966 2964 2966 2968 2968 2968 2968 2968 2967 2966 2971 2980 2986 2991 2995 2999 3004 3008 3010 3011 3014 3016 3018 3021 3023 3026 3029 3032
3002 3001 3001 2997 2992 2984 2980 2977 2977 2970 2959 2958 2960 2961 2961 2964 2963 2962 2962 2964 2967 2964 2962 2964 2966 2971 2978 2983 2988 2991 2995 3000 3005 3008 3010 3011 3012 3016 3018 3020 3023 3026 3029 3031
3001 2997 2995 2991 2987 2982 2977 2974 2973 2972 2965 2957 2957 2954 2952 2950 2953 2952 2956 2957 2958 2960 2959 2960 2963 2968 2977 2983 2987 2992 2996 3002 3006 3008 3010 3011 3015 3016 3018 3020 3023 3026 3028 3030
2998 2994 2991 2988 2985 2979 2977 2972 2971 2965 2958 2951 2947 2949 2947 2947 2949 2949 2952 2955 2955 2955 2955 2955 2959 2963 2975 2982 2987 2992 2998 3001 3005 3009 3009 3012 3014 3015 3017 3020 3023 3026 3028 3030
2996 2994 2987 2985 2981 2976 2972 2967 2962 2957 2950 2947 2942 2940 2940 2940 2943 2946 2947 2951 2950 2948 2952 2955 2948 2965 2975 2980 2987 2992 2996 3001 3007 3007 3009 3013 3014 3015 3018 3020 3022 3025 3027 3030
2991 2989 2983 2979 2975 2969 2964 2961 2955 2950 2945 2940 2938 2937 2936 2936 2939 2942 2943 2948 2946 2945 2951 2953 2946 2969 2975 2979 2987 2992 2996 3002 3005 3007 3011 3012 3014 3016 3018 3020 3022 3024 3026 3028
2987 2983 2978 2974 2968 2962 2956 2951 2947 2941 2938 2933 2931 2932 2933 2934 2936 2939 2943 2944 2943 2944 2947 2951 2960 2969 2973 2978 2986 2991 2998 3001 3004 3009 3011 3013 3015 3017 3019 3021 3023 3024 3026 3028
2983 2976 2974 2968 2964 2958 2951 2944 2938 2932 2931 2929 2928 2928 2928 2930 2934 2937 2940 2943 2942 2942 2946 2953 2964 2970 2973 2979 2987 2993 2999 3000 3005 3009 3012 3014 3016 3018 3020 3022 3023 3024 3025 3027